Location: Newark
(46.7000°N, 60.6000°W)
Time: 05:18:38
(UTC+00:00)

Transit 2A Rocket - Pass Details

Date: 03 November 2020
Orbit: 588 x 914 km, 66.7° (Epoch: 27 November)

Event Time Altitude Azimuth Distance (km) Brightness Sun altitude
Rises 14:59:38 0° 278° (W) 3,518 8.2 27.1°
Reaches altitude 10° 15:03:29 10° 302° (WNW) 2,539 7.4 27.2°
Maximum altitude 15:06:39 15° 335° (NNW) 2,184 7.0 27.3°
Drops below altitude 10° 15:09:43 10° 8° (N) 2,446 7.2 27.4°
Sets 15:13:19 0° 32° (NNE) 3,309 7.9 27.5°
